Wind_Speed
17 17 17 16 17 17 18 19 19 21 26 29 32 36 38 38 40 39 40 42 44 44 45 45 45 45 46 46 46 45 44 43 42 40 39 38 37 35 35 36 37 36 36 37 38 38 37 35 33 32 31 31 32 31 31 31 30 29 28 27 26 26 25
15 17 17 16 16 18 19 19 19 22 27 30 33 35 37 39 40 40 41 42 44 45 46 46 46 45 46 46 46 45 44 43 41 40 38 37 36 35 35 37 38 38 37 38 38 38 36 35 34 33 32 32 32 32 32 32 31 31 30 29 28 27 26
16 17 17 17 17 18 19 18 19 23 28 30 32 34 37 40 42 44 43 42 44 44 44 45 46 46 46 45 44 43 44 43 41 40 38 38 37 36 35 36 37 38 38 38 38 37 36 35 35 34 33 33 33 33 32 32 32 32 32 31 30 29 28
18 19 18 18 18 18 18 18 18 23 29 32 35 37 40 43 44 44 44 44 44 43 43 45 46 45 45 44 43 43 44 43 42 41 40 39 38 37 35 35 36 37 37 38 38 38 37 36 36 36 35 34 34 34 33 33 33 34 33 32 32 31 30
18 18 16 16 17 16 16 18 18 23 28 32 36 38 41 43 42 42 43 44 45 46 47 47 46 45 45 44 44 43 44 44 43 42 40 39 38 37 36 36 36 37 37 38 38 38 37 36 37 37 36 36 35 35 35 34 34 34 34 34 33 33 32
16 16 15 15 16 16 17 19 20 25 31 33 36 38 39 39 39 41 42 42 43 44 44 43 43 44 44 44 43 42 42 43 42 41 40 39 38 37 38 38 37 37 37 37 38 38 38 37 38 38 38 38 37 37 37 36 36 36 35 35 35 35 33
15 15 16 16 17 17 19 19 20 27 33 35 36 37 36 36 38 40 40 40 42 42 41 41 43 44 43 42 42 41 41 41 41 41 40 39 38 38 39 39 38 38 37 37 38 38 38 38 38 38 39 39 39 38 38 38 38 37 36 36 36 35 34
16 16 16 17 17 17 18 18 18 23 29 31 31 30 31 34 36 37 37 39 40 40 41 43 44 44 43 41 41 41 41 41 41 41 40 39 39 39 39 39 39 39 37 37 38 38 39 39 39 38 39 40 40 40 39 39 39 38 37 37 37 35 34
17 16 15 16 17 17 17 18 17 20 24 26 27 27 30 33 34 36 39 40 39 40 42 44 44 43 42 41 41 42 41 40 40 41 41 40 40 40 40 40 39 38 38 38 39 39 39 39 39 39 39 40 40 40 40 39 39 39 38 38 38 36 35
15 14 14 16 16 15 15 16 15 15 17 19 23 26 29 32 34 36 38 38 39 42 44 43 42 42 41 41 41 41 41 41 41 41 41 42 41 41 41 40 39 38 38 38 38 38 39 39 38 39 39 40 41 41 40 40 39 39 39 39 39 37 36
11 11 13 14 15 15 15 14 13 14 14 15 21 25 28 31 34 35 37 39 41 42 42 41 40 40 41 41 40 39 41 41 40 41 42 42 42 42 41 40 39 38 38 38 37 38 38 38 38 39 40 41 42 41 41 40 40 40 40 40 39 38 36
10 10 11 13 14 15 15 14 14 15 14 14 20 25 28 31 33 34 36 39 41 40 39 40 40 40 40 40 39 40 40 40 41 41 42 42 42 41 41 40 39 39 38 38 37 37 37 38 39 40 41 42 42 41 41 40 40 41 41 40 39 37 36
11 11 12 14 15 15 14 13 14 16 15 16 21 26 29 31 33 34 35 37 39 39 38 39 40 40 40 40 39 40 40 41 42 41 40 41 41 40 40 39 39 39 38 38 37 37 37 38 40 41 42 42 42 41 41 40 41 41 41 40 38 37 36
12 12 12 13 14 14 14 14 14 15 16 16 20 26 28 30 33 35 36 38 38 38 38 39 39 39 39 39 39 40 41 42 41 40 40 40 40 40 40 40 39 39 38 37 37 38 39 39 40 40 41 41 42 41 40 40 41 42 41 39 38 37 37
10 11 12 12 12 12 13 14 14 15 16 17 19 23 26 28 31 33 34 35 36 37 39 40 39 40 39 38 40 42 42 41 39 39 39 39 40 40 40 39 38 38 37 37 38 39 39 40 39 39 39 40 41 41 40 41 43 43 42 40 38 37 37
11 12 12 13 13 13 14 15 15 15 15 16 16 19 23 25 28 31 32 33 34 36 38 39 39 39 39 39 42 42 40 39 39 39 39 39 40 40 39 38 37 37 37 38 38 39 39 39 38 39 39 40 40 40 41 42 44 44 43 41 40 38 37
11 12 13 14 14 14 15 15 15 15 15 16 17 20 24 26 29 32 33 33 34 37 38 38 38 38 39 41 42 40 38 39 40 39 40 41 40 39 39 38 37 37 37 38 39 39 39 38 38 39 40 40 40 41 42 44 45 44 42 42 40 39 38
11 12 13 15 14 13 14 15 14 15 15 15 17 20 24 27 27 29 30 33 36 37 37 37 37 38 40 41 39 38 39 39 39 40 40 41 40 40 39 38 37 37 37 38 40 40 39 39 39 40 40 41 41 42 43 45 45 42 41 41 41 40 39
10 11 13 15 14 13 14 14 14 16 16 15 18 24 29 30 29 30 34 37 38 36 35 36 37 38 39 39 37 38 39 39 39 40 40 41 40 39 37 38 39 39 40 40 40 39 39 39 39 40 41 41 41 43 44 44 42 41 41 41 41 42 41
5 7 8 10 10 10 12 12 12 13 15 18 23 28 31 31 31 34 37 37 35 34 34 36 36 37 37 37 37 38 39 39 39 41 41 41 40 38 38 39 41 41 41 40 39 39 40 40 40 40 41 42 43 43 44 42 40 40 41 41 41 42 42
3 3 5 7 7 9 11 12 12 12 14 21 26 28 27 28 31 32 32 31 32 34 36 37 37 37 37 36 37 38 38 39 40 41 41 39 38 38 40 41 41 42 41 39 39 41 41 40 40 41 42 43 42 42 41 41 40 40 41 42 42 41 41
4 3 4 5 7 9 9 8 10 12 16 22 25 26 27 31 33 31 29 31 33 35 36 36 35 36 35 34 36 38 39 40 40 39 39 38 38 39 41 42 42 42 40 39 39 40 39 39 41 42 42 42 41 41 40 40 39 40 41 42 41 40 41
5 4 4 3 3 5 5 7 10 12 14 18 22 26 31 34 33 30 27 28 30 31 33 32 32 33 34 34 37 38 39 40 39 38 37 37 38 40 42 42 42 41 40 39 38 38 39 40 40 41 41 41 41 41 41 39 39 40 41 41 40 39 40
5 5 6 6 6 6 6 5 10 16 17 18 20 25 27 27 28 26 24 25 28 29 29 29 31 33 34 36 38 39 39 39 39 38 37 38 40 42 42 41 40 40 40 39 38 39 40 40 39 39 40 41 42 42 40 39 39 40 41 40 39 39 39
8 7 7 7 8 7 9 9 4 13 18 17 19 21 19 17 21 23 23 24 27 27 27 29 33 35 37 38 38 37 38 38 38 38 39 40 42 42 41 40 39 38 38 38 39 39 39 38 37 37 39 39 40 40 40 39 39 40 40 38 37 38 39
8 9 8 8 11 10 10 10 5 5 10 12 16 19 20 20 21 22 22 23 23 23 26 32 37 39 39 38 35 35 36 37 38 40 40 41 42 41 41 40 38 37 37 38 38 38 37 37 36 36 37 37 37 38 39 39 38 38 38 36 36 37 38
7 8 8 9 13 15 12 11 11 7 3 1 6 13 19 23 23 21 23 22 20 24 31 37 39 38 37 35 34 35 38 38 40 42 42 42 40 38 38 38 38 38 38 38 37 36 35 35 35 35 35 35 36 36 37 38 37 37 36 34 35 36 38
9 10 12 13 16 17 13 10 11 13 12 9 3 5 14 20 20 19 20 19 21 30 37 36 32 31 31 32 33 34 37 38 41 42 42 40 38 35 36 37 38 39 39 37 37 36 35 34 34 33 33 33 34 35 35 35 36 36 35 33 33 35 37
11 11 11 12 14 15 13 9 9 12 14 14 10 3 5 13 16 16 15 18 27 35 34 29 26 26 28 29 31 34 36 38 40 40 38 38 38 37 36 36 36 36 37 37 36 34 33 33 32 31 29 29 31 32 33 33 34 34 33 32 32 32 34
11 11 11 11 13 14 12 8 7 10 13 15 14 10 4 4 10 13 14 19 26 28 27 27 28 27 28 31 34 35 37 38 39 39 39 39 39 38 37 36 36 35 35 35 34 31 30 30 30 28 27 26 27 28 29 30 31 31 30 29 29 31 32
8 8 9 10 12 15 14 11 10 11 13 16 17 15 12 9 6 6 8 12 14 15 19 25 27 26 28 32 34 36 38 39 39 40 40 39 39 39 38 37 35 34 33 32 31 29 28 27 27 27 26 26 26 26 26 27 27 27 27 26 27 28 29
6 7 7 8 10 12 13 12 12 12 13 16 18 16 14 14 11 8 8 9 9 8 12 17 21 25 27 29 31 35 37 36 35 37 39 39 39 39 39 39 36 34 33 31 30 28 27 26 27 26 25 24 25 25 26 25 25 25 25 24 24 26 28
5 6 7 8 9 10 10 9 9 10 11 13 17 17 15 14 13 11 10 10 9 7 8 10 14 21 25 28 31 33 33 32 32 33 35 37 39 38 37 36 35 34 31 30 30 29 28 27 26 25 24 23 23 25 26 26 25 25 24 24 24 25 27
6 6 7 9 10 10 9 7 7 7 8 10 14 16 16 14 13 11 9 9 9 8 8 7 9 12 17 22 26 27 28 31 33 34 34 36 37 37 34 33 33 33 33 33 32 29 27 27 27 27 27 26 25 25 24 24 25 26 25 25 25 25 26
8 8 9 11 12 12 11 9 8 8 8 10 13 14 14 15 14 12 9 8 8 7 6 6 7 9 11 13 16 22 27 30 31 33 34 34 33 32 33 37 41 40 37 35 35 32 27 24 26 28 30 31 31 28 25 23 25 25 24 23 23 22 22
8 8 10 12 13 14 14 13 12 11 10 12 13 14 14 15 15 14 12 9 6 5 5 6 5 6 7 8 9 13 19 24 30 34 33 31 32 32 29 29 36 42 40 34 33 35 33 28 26 28 30 31 31 28 24 23 23 22 21 20 18 16 17
9 9 11 14 13 13 14 15 15 14 14 15 16 16 15 14 14 13 14 13 9 3 3 3 3 3 4 4 5 8 12 15 23 32 33 31 32 34 32 27 22 26 33 32 30 33 34 29 26 28 28 26 26 23 18 16 16 16 16 16 15 14 14
14 14 15 16 16 15 15 15 15 15 15 17 18 17 15 14 13 12 12 13 12 10 8 8 9 10 9 7 4 2 6 10 15 19 28 36 37 35 35 34 29 25 26 29 33 35 32 25 22 22 20 17 17 17 14 11 11 11 13 14 15 15 15
Wind_Direction
199 202 202 200 200 199 199 198 197 198 198 198 198 197 197 197 197 197 198 199 200 201 201 201 201 201 202 204 206 207 208 209 209 210 212 213 215 215 213 212 213 214 214 214 217 219 221 222 221 222 222 222 223 224 224 222 221 221 223 226 228 228 230
200 207 205 199 200 200 201 200 198 198 198 199 199 197 197 197 197 197 199 200 200 201 201 200 201 202 203 205 205 206 207 208 209 210 210 212 214 215 215 214 214 215 216 216 219 220 221 223 222 221 221 222 223 223 222 222 223 224 224 226 227 228 230
202 208 204 200 200 199 200 199 199 200 199 199 199 198 199 199 198 198 199 199 201 202 201 201 202 203 203 204 205 206 207 208 209 209 209 211 212 214 215 215 215 216 217 218 219 221 222 222 222 221 220 221 222 222 222 223 225 227 227 227 227 228 229
204 207 202 200 200 199 200 198 199 201 201 201 199 199 200 200 200 199 199 200 200 201 201 202 202 203 203 204 204 205 207 208 209 209 210 211 212 213 213 215 216 217 217 219 220 221 222 222 221 219 219 220 221 221 221 223 227 229 228 227 228 229 231
208 207 201 200 200 199 201 200 200 201 202 203 202 201 202 201 200 200 201 201 201 201 202 202 202 202 204 204 204 205 207 208 209 210 210 211 211 212 212 214 216 217 218 219 220 221 222 221 219 218 218 219 221 222 222 224 227 229 228 228 228 229 231
208 205 200 199 199 199 200 201 202 201 202 203 202 203 203 200 199 200 201 202 202 203 204 203 202 203 204 204 205 205 207 208 209 210 211 211 211 211 212 215 216 217 219 219 220 221 221 221 220 218 218 219 221 222 222 224 226 228 228 228 228 229 231
206 202 201 199 197 198 200 201 202 202 203 203 203 203 201 198 199 200 201 201 202 203 202 203 204 204 204 205 205 205 206 207 208 209 210 211 211 212 213 215 217 218 219 219 220 220 220 220 220 220 220 220 221 223 223 224 225 227 228 227 227 228 231
210 205 201 198 197 199 199 200 201 201 203 204 203 201 198 197 199 199 200 201 202 202 202 204 204 204 205 204 204 206 207 207 208 208 209 210 211 213 214 216 217 218 218 219 221 220 220 220 221 221 221 220 222 223 223 223 225 226 226 225 226 227 230
214 207 200 197 197 199 198 200 201 198 200 201 200 198 196 197 198 198 200 201 200 202 203 205 204 204 204 204 205 206 206 207 207 207 208 209 211 213 214 215 217 217 218 219 221 221 221 221 221 221 220 220 222 223 222 223 224 226 226 224 225 227 228
215 206 200 197 197 200 200 200 198 195 196 196 196 196 196 197 198 199 200 200 200 203 204 204 203 203 203 204 205 205 206 207 207 207 207 208 210 212 213 215 216 216 217 219 220 220 221 221 221 220 219 220 221 222 221 222 223 225 226 225 226 227 227
215 207 203 200 197 198 198 197 195 194 195 193 193 195 196 197 199 199 199 199 201 204 204 202 202 202 203 203 204 204 206 207 206 207 207 208 210 212 213 214 214 215 217 217 218 219 219 219 219 218 219 220 221 221 222 222 223 225 226 226 227 228 228
213 207 202 199 200 200 196 194 194 193 192 192 193 194 195 197 199 199 200 201 203 203 201 201 201 201 202 202 202 204 206 206 206 207 208 208 210 211 212 213 213 214 216 216 216 217 218 218 218 218 219 221 222 222 222 223 224 225 226 226 226 227 228
211 204 198 198 201 200 193 189 193 192 191 193 194 195 196 196 197 198 200 202 203 202 199 199 200 200 201 201 202 204 205 206 207 207 208 209 210 211 212 212 213 213 214 215 215 216 217 218 219 219 221 222 223 223 223 223 224 226 226 225 225 225 226
215 207 200 199 202 199 190 189 192 192 192 194 195 197 197 197 198 198 200 202 201 199 198 198 198 199 200 200 202 205 206 206 207 207 208 210 211 212 213 212 212 213 213 214 214 216 217 218 219 220 221 223 224 224 224 223 224 226 225 224 224 223 224
216 208 198 193 195 194 192 195 194 192 194 195 194 196 196 197 199 199 201 202 200 198 198 197 197 198 199 200 203 205 206 205 206 207 208 210 211 212 212 212 212 212 212 213 214 216 218 219 220 220 221 223 224 224 224 224 225 226 224 223 222 221 223
207 202 195 190 189 189 194 199 197 195 197 195 194 195 194 195 197 197 200 201 198 199 199 196 196 197 198 201 204 205 204 203 204 206 207 209 211 212 212 212 212 211 211 212 214 216 217 218 219 220 221 222 223 224 224 225 227 227 225 224 222 221 222
209 199 194 196 195 192 193 197 197 196 197 198 198 196 194 195 196 196 198 199 198 199 198 196 196 197 199 203 205 203 202 202 202 204 206 208 210 210 211 211 210 211 211 212 213 215 216 216 217 219 221 223 223 224 225 226 228 227 226 225 224 223 223
210 200 196 202 201 194 194 195 195 196 198 201 200 197 197 197 195 195 197 197 199 199 197 195 197 198 201 205 204 201 201 201 201 203 205 208 209 209 209 209 209 211 211 211 213 213 214 215 216 218 220 222 224 225 226 228 229 227 226 225 224 224 225
215 208 205 206 201 196 197 196 195 197 198 199 197 198 200 197 193 195 198 199 199 197 194 195 198 200 203 205 202 201 201 200 200 202 205 207 207 208 207 207 209 210 210 211 212 212 213 214 216 218 219 221 223 225 228 230 229 227 227 226 225 225 226
243 238 233 223 205 194 197 199 200 201 200 199 200 201 201 198 197 200 200 199 197 193 193 196 199 201 204 204 202 201 201 200 200 202 205 206 205 205 205 207 209 210 211 211 210 211 212 213 214 217 219 221 223 226 228 229 229 229 228 227 226 226 227
310 276 257 241 217 202 199 197 198 199 200 202 202 199 197 199 202 204 202 198 194 193 195 197 200 202 204 203 203 202 201 200 202 203 205 204 203 203 206 208 210 210 210 210 210 211 212 212 213 216 218 221 222 225 228 229 229 229 229 228 226 225 227
339 311 255 241 233 227 218 208 207 207 204 203 199 194 195 200 203 203 201 198 195 195 197 198 200 203 204 203 203 203 202 202 202 203 204 202 201 203 206 208 210 210 209 209 210 212 212 213 214 216 218 220 222 224 227 229 229 229 229 229 226 224 226
344 347 339 315 269 254 245 228 221 217 209 201 195 195 199 202 201 200 199 198 197 198 198 199 202 204 204 204 204 204 204 203 203 203 202 201 202 205 207 209 210 209 208 208 209 211 212 214 215 216 217 219 220 223 225 227 228 229 230 229 225 222 223
351 5 5 5 8 2 343 283 222 205 199 197 201 205 205 203 199 195 195 197 198 199 198 200 205 206 205 207 206 205 205 204 203 203 202 202 204 207 208 209 210 209 208 208 209 211 213 214 215 216 218 219 220 222 223 226 228 229 230 228 224 221 221
358 8 7 11 19 12 355 343 267 199 190 191 202 207 207 203 196 192 195 198 198 198 199 202 206 207 208 209 208 206 205 205 205 205 204 205 207 208 208 209 210 209 209 209 211 213 214 214 215 217 218 220 221 222 223 225 227 229 229 227 223 222 221
357 357 358 4 11 12 14 19 29 178 186 193 202 202 199 196 191 191 199 201 197 199 204 207 208 208 210 211 208 206 206 206 206 207 208 209 210 209 208 209 208 208 208 209 212 214 215 215 215 217 219 220 221 222 223 224 226 228 228 225 223 223 221
354 355 358 1 5 10 19 36 46 55 64 185 205 199 195 191 188 192 199 197 195 204 210 212 212 210 209 209 207 206 207 207 207 209 211 212 212 210 209 208 207 207 207 208 210 212 214 215 215 216 219 220 220 221 222 223 224 227 226 223 223 223 220
7 6 3 3 7 9 10 21 36 38 33 29 41 183 190 189 190 197 197 192 199 211 214 216 215 211 208 207 207 208 209 209 210 210 211 212 211 210 210 210 208 208 206 206 208 210 212 213 213 214 216 217 218 219 220 221 223 225 225 223 223 222 219
13 9 4 4 5 6 8 15 24 26 25 27 29 32 194 194 198 200 196 200 212 217 216 217 215 211 208 208 209 210 211 212 212 211 210 211 209 208 209 209 209 208 206 205 206 207 209 210 210 210 210 211 213 215 217 218 221 223 224 223 222 221 220
12 7 5 3 0 2 9 20 20 18 24 29 30 24 7 241 222 215 209 217 224 223 218 216 213 210 208 208 209 211 212 213 213 211 210 209 207 206 208 207 206 206 206 206 205 204 204 206 205 203 202 202 203 206 210 214 217 219 222 221 221 221 221
19 13 9 7 5 4 7 12 14 16 22 25 25 24 20 6 326 264 247 250 249 237 225 220 215 211 210 210 209 211 212 213 212 210 209 208 205 204 205 204 202 201 202 203 203 202 201 200 199 198 196 195 194 195 200 206 210 213 216 218 219 221 222
24 22 20 18 17 13 10 10 12 17 20 18 17 19 20 17 11 354 327 310 292 258 238 230 222 217 216 215 214 214 213 212 210 208 208 206 205 205 205 201 197 196 197 197 197 199 199 195 193 192 191 189 188 188 190 195 200 204 207 209 212 216 219
29 28 27 24 23 23 22 18 17 21 22 13 9 14 18 19 17 6 348 333 316 284 262 250 235 226 222 220 219 218 215 210 208 206 205 204 204 205 205 201 195 191 190 191 192 194 193 189 187 186 184 180 179 179 181 185 190 194 197 199 204 209 213
37 37 37 32 28 32 35 35 31 31 26 11 6 12 20 23 21 12 359 347 332 308 290 282 270 255 245 237 229 221 214 210 207 203 202 202 203 200 196 193 190 189 189 191 192 190 188 186 184 182 178 174 170 169 172 177 184 188 192 196 200 202 204
35 34 35 33 34 37 39 38 36 36 31 18 14 18 25 28 28 24 12 356 335 313 292 286 297 302 291 272 248 226 215 211 207 203 201 198 194 191 189 188 187 187 187 188 189 188 187 187 186 182 179 174 170 168 168 173 183 191 196 198 199 199 202
38 33 30 32 35 36 36 33 30 31 29 22 22 27 29 29 34 37 31 19 353 307 265 248 259 275 281 287 275 249 228 213 205 203 200 190 177 170 170 177 185 185 181 178 181 184 185 188 190 188 182 176 173 175 178 182 187 192 195 197 198 202 207
50 45 39 38 38 35 32 29 26 26 24 21 23 27 25 24 30 35 36 33 26 355 268 247 246 240 241 252 277 288 278 251 225 210 196 178 164 156 144 134 143 163 166 165 166 170 176 187 198 197 189 179 172 172 178 185 189 190 192 194 196 198 202
55 56 54 50 48 44 37 33 31 30 29 28 29 28 27 26 26 25 31 40 49 60 69 70 72 71 64 65 75 17 302 298 287 252 208 178 160 152 142 127 114 113 129 145 152 152 156 170 185 188 183 175 167 165 167 175 186 195 199 199 197 197 198
Height
691 694 694 695 698 700 701 702 705 708 711 715 718 721 725 728 732 735 738 741 744 746 750 753 756 759 762 764 767 770 773 775 778 780 783 786 788 791 793 794 796 797 798 799 800 802 804 806 808 809 811 812 813 815 816 818 819 821 822 823 824 825 826
690 690 690 691 694 695 696 697 700 703 706 709 713 717 720 723 727 730 733 736 739 742 745 748 751 754 757 760 763 766 769 772 774 777 780 783 786 788 790 792 793 794 795 797 798 800 802 804 806 807 809 810 811 813 815 816 818 819 821 822 823 824 824
685 684 684 686 688 689 691 693 696 699 701 704 708 712 715 717 720 723 727 731 735 738 741 744 747 750 753 756 760 763 766 769 771 774 776 779 782 785 787 790 791 792 793 795 796 798 800 801 803 805 807 808 809 811 813 815 816 817 819 820 821 822 823
677 676 677 680 682 684 686 689 692 694 696 699 702 706 708 711 715 719 723 726 730 734 737 740 743 746 750 752 756 759 762 765 767 770 773 775 778 781 784 787 788 790 791 792 794 796 797 799 801 803 805 806 807 809 811 813 814 815 817 818 820 820 821
672 671 674 677 679 681 683 684 686 688 692 694 698 701 703 707 712 716 719 722 725 728 731 734 739 742 746 748 751 755 757 761 764 767 770 772 775 778 781 783 785 787 789 790 792 794 795 797 798 800 802 803 805 807 809 811 812 813 815 816 818 818 819
668 669 671 673 674 676 678 679 681 682 686 689 693 696 699 705 709 712 715 719 722 725 728 733 736 738 742 745 748 751 754 757 760 763 767 769 772 774 776 779 782 784 786 788 789 791 792 794 795 797 799 801 803 804 806 808 810 811 813 814 815 816 817
661 663 664 665 667 670 671 673 675 677 681 684 687 692 697 702 706 708 712 716 718 722 726 730 733 735 738 741 745 748 751 754 757 760 763 766 768 770 772 775 778 780 783 785 787 788 790 791 793 794 796 798 800 802 803 805 807 808 810 812 813 814 816
655 656 658 660 661 663 666 668 670 673 677 681 685 690 695 698 702 705 709 712 715 719 722 724 727 731 734 738 742 745 747 750 754 757 760 762 765 766 769 771 774 777 780 782 784 785 787 789 790 792 794 796 797 799 801 802 804 806 808 809 811 812 814
649 650 652 654 656 658 660 662 664 668 673 678 682 686 691 694 697 701 703 707 711 714 716 719 723 727 731 735 738 740 744 747 750 753 755 758 760 762 764 767 770 773 776 778 780 783 784 786 788 790 791 793 794 796 798 800 801 803 805 806 808 809 811
645 648 648 650 652 653 655 658 662 667 670 675 678 682 686 689 693 695 698 703 706 708 710 715 719 724 728 731 734 737 741 743 746 749 751 753 755 757 760 763 766 769 772 774 777 779 781 784 786 787 789 790 791 793 795 796 798 800 802 803 805 807 808
643 646 647 649 650 652 655 658 661 664 666 669 673 677 681 685 688 691 694 697 700 702 707 712 716 720 723 727 731 734 737 739 742 744 746 748 751 753 756 759 763 765 768 771 774 776 779 781 783 785 786 786 787 789 791 793 795 797 798 800 802 804 806
643 644 646 649 649 650 652 654 657 660 662 665 669 672 676 679 683 686 689 692 694 698 703 708 712 716 719 723 726 729 732 735 738 739 742 745 747 750 753 756 759 762 764 767 770 773 776 778 780 781 782 783 784 786 788 790 792 793 795 797 800 802 803
638 639 641 643 644 646 649 652 654 656 658 661 663 667 670 674 677 681 684 687 690 695 699 703 707 711 715 719 722 725 728 730 733 736 739 742 744 748 750 753 755 758 760 764 767 770 772 774 776 777 779 780 782 784 785 787 789 790 792 795 797 799 800
636 636 637 639 641 644 647 650 651 653 655 657 659 663 666 669 672 675 679 682 685 690 695 698 703 706 710 714 717 719 722 725 729 733 736 739 742 745 747 749 752 754 757 761 763 765 767 769 772 774 776 777 779 780 783 784 785 786 788 791 793 795 797
635 636 636 638 640 643 645 647 648 649 651 652 655 659 662 665 669 672 675 678 682 686 689 693 698 701 706 709 711 713 716 721 726 729 733 736 739 741 743 746 749 752 754 757 759 761 763 766 768 770 772 774 775 777 779 780 780 781 784 787 789 792 793
632 632 633 634 635 638 640 642 643 645 647 649 651 654 657 661 664 668 671 675 679 682 685 689 693 696 700 703 704 708 713 718 721 725 729 732 734 737 740 743 746 749 751 753 755 757 759 762 765 766 768 770 771 773 775 775 775 777 780 783 786 788 791
630 628 629 629 629 632 634 636 639 642 644 646 647 649 652 655 659 662 666 670 674 677 681 685 689 692 695 696 698 704 709 713 716 720 723 726 729 733 736 740 743 745 747 749 750 753 755 757 760 761 763 765 767 768 769 769 770 773 776 780 783 786 787
629 626 625 624 625 627 629 632 635 638 640 641 643 646 649 651 655 659 662 666 669 672 677 681 684 687 689 691 696 701 704 707 711 714 718 721 724 728 732 736 739 741 743 744 745 747 750 752 754 756 759 761 762 763 764 764 766 770 773 776 779 782 784
626 624 621 619 620 623 625 626 629 631 633 635 638 641 644 647 651 654 656 659 663 668 674 677 680 683 685 688 693 696 699 703 707 709 712 715 719 723 728 731 733 734 736 738 740 743 745 747 749 751 753 755 757 758 758 760 763 766 769 772 774 777 780
625 624 621 619 620 620 621 623 624 626 628 630 633 636 640 644 646 648 650 655 660 666 670 673 676 679 681 685 688 691 695 699 701 703 706 710 714 719 723 725 726 728 730 733 736 738 739 741 743 746 748 750 751 753 754 757 760 762 764 767 769 773 776
623 623 623 622 621 620 619 620 621 623 625 627 630 634 638 642 644 647 651 654 658 662 664 667 670 673 676 680 684 687 690 693 695 698 701 705 710 714 716 718 720 722 725 728 730 731 733 735 738 740 742 744 746 749 750 752 755 757 760 762 765 769 772
625 624 623 621 620 619 618 618 619 620 621 623 626 631 634 636 639 644 649 652 654 657 659 662 665 668 672 676 679 682 685 687 691 694 697 701 705 707 709 711 713 716 719 722 725 727 729 731 732 734 736 739 742 744 745 748 750 753 755 757 760 765 768
626 625 622 620 618 617 616 617 617 619 621 623 626 628 629 631 635 641 646 650 652 654 657 660 662 664 668 671 673 677 680 683 686 690 693 697 699 700 702 704 707 711 714 717 720 722 724 725 726 729 731 734 737 738 740 743 746 748 750 752 757 761 764
625 623 621 619 617 615 614 615 616 617 621 623 626 627 628 631 635 639 644 647 650 652 655 657 658 660 663 665 667 671 675 679 683 686 689 691 692 694 696 699 702 706 709 712 714 716 718 720 722 725 727 729 731 733 735 738 741 743 745 749 753 757 760
624 623 622 620 619 617 615 614 615 616 619 620 623 626 630 634 636 638 641 643 646 649 650 651 652 654 657 659 662 667 671 675 679 682 684 685 686 688 692 695 698 702 705 708 710 712 714 716 719 721 722 724 726 729 731 734 736 738 741 745 750 754 756
625 624 623 621 620 619 617 616 615 617 619 619 621 624 627 631 634 636 638 640 643 646 645 644 645 647 651 655 660 665 668 671 675 677 678 679 681 683 687 690 694 698 701 703 706 708 711 713 714 716 718 720 723 725 727 730 732 734 737 741 746 749 752
627 626 624 623 621 619 619 618 618 619 620 620 621 623 625 627 629 632 634 637 640 640 639 639 640 643 647 652 657 660 663 665 668 670 672 675 678 682 685 687 690 693 695 698 701 704 707 708 710 712 714 716 718 721 723 725 728 730 733 737 741 745 748
629 627 626 624 622 621 619 619 618 619 620 620 621 622 623 625 627 628 631 634 635 633 633 636 639 642 645 649 653 656 658 660 662 664 667 671 675 679 681 683 686 687 689 693 696 698 701 703 705 707 709 712 714 717 719 722 724 726 729 733 737 740 743
632 631 630 628 627 626 623 622 621 621 622 621 621 622 623 624 625 627 629 630 628 628 631 635 638 640 642 646 649 651 653 655 657 660 663 666 670 673 676 679 682 684 686 688 691 693 696 699 701 704 706 708 710 712 715 718 719 722 725 729 733 736 739
637 636 635 633 632 629 627 626 625 624 625 625 625 625 625 625 625 626 627 626 625 627 629 631 633 635 637 640 642 645 647 649 652 654 657 660 663 666 669 673 676 679 682 684 687 689 692 695 697 700 702 704 706 708 711 713 716 719 722 726 729 733 735
643 641 639 638 636 633 631 630 628 627 627 628 628 629 629 629 628 627 627 627 628 629 629 629 631 632 633 635 636 638 640 642 645 648 650 653 656 659 661 665 669 673 676 680 683 686 688 691 694 696 698 700 702 705 708 710 713 717 720 723 727 730 733
645 643 642 641 639 638 636 634 632 631 631 630 631 631 630 631 631 630 631 630 630 630 630 630 631 632 632 633 634 634 635 637 639 642 644 647 650 652 654 657 661 665 670 674 679 683 685 687 690 692 695 697 699 702 705 708 711 714 717 721 724 727 731
646 644 643 643 642 642 641 640 639 637 636 635 634 633 633 632 631 631 631 631 630 630 630 630 631 631 631 631 631 631 633 634 636 637 640 642 644 646 649 653 656 660 664 669 673 676 679 682 686 689 692 694 697 700 703 706 709 712 715 719 722 725 729
645 645 645 644 644 645 645 644 644 643 642 640 639 638 636 634 633 632 631 630 630 630 630 630 630 631 630 630 629 630 630 631 632 633 634 635 637 639 643 647 652 655 659 662 666 670 674 678 680 684 687 690 694 698 701 704 706 709 712 715 719 723 727
644 644 644 644 644 644 644 645 645 644 643 643 641 640 638 635 634 632 630 629 629 628 629 629 629 630 630 630 629 629 628 628 628 629 629 629 631 633 636 638 641 644 648 653 657 663 673 680 683 683 684 686 690 694 698 701 704 706 709 713 716 720 724
645 645 644 644 644 643 643 644 644 643 643 643 641 640 638 636 635 633 631 630 629 628 628 628 628 629 629 629 630 630 629 627 626 624 624 624 624 626 630 634 636 636 640 646 650 655 666 679 685 686 685 686 688 691 695 698 701 705 708 711 715 718 722
648 647 647 647 647 646 646 646 645 645 644 643 642 641 639 638 636 635 633 632 630 628 628 627 627 628 628 629 631 631 632 631 628 622 619 618 620 621 624 631 638 639 640 644 648 651 661 676 686 688 687 687 688 691 695 699 702 705 708 710 714 717 721
651 651 651 651 650 650 650 650 649 648 647 645 644 642 640 640 638 637 636 635 633 631 629 629 629 630 630 631 631 630 631 631 629 626 619 611 611 617 620 625 634 641 644 647 648 647 656 674 687 689 688 688 689 692 696 700 704 707 709 710 713 716 720